Theta_e
294 293 293 292 292 292 292 291 291 290 290 289 288 288 287 287 287 286 286 285 285 285 285 284 284 284 284 284 284 285 285 286 288 288 289 289 289 289 289 289 289 289 289 289 289 290 290 290 290 290 290 290 290 291 291 291 291 291 291 291 291 291 291 291 291 291 291 292 292 292 292 292 293 293 293 293 294 293 293 293 293 293 293 293 294 294
294 293 293 292 292 291 290 290 290 289 288 288 288 287 287 287 286 286 286 285 285 284 284 284 284 284 284 284 284 284 285 286 287 288 288 288 288 288 288 288 288 289 289 289 289 289 289 289 289 289 290 290 290 290 290 290 290 291 291 291 291 291 291 291 291 291 291 291 291 292 292 292 292 292 293 293 293 293 293 292 293 293 293 293 294 294
293 292 292 291 291 290 289 289 288 288 288 287 287 287 287 286 286 286 286 285 285 284 284 284 284 284 284 284 284 284 285 286 286 287 287 287 287 288 288 288 288 288 288 289 289 289 289 289 289 289 289 289 289 290 290 290 290 290 290 290 290 290 290 290 290 290 290 291 291 291 291 292 292 292 292 292 292 292 292 292 292 293 293 293 294 294
292 292 291 290 290 289 288 288 288 288 287 287 287 287 286 286 286 286 285 285 285 284 284 284 284 284 284 284 284 284 284 285 285 286 286 286 286 287 287 287 287 288 288 288 288 288 288 288 288 288 288 288 289 289 289 289 289 289 289 289 289 289 290 290 290 290 290 290 291 291 291 291 292 292 292 292 292 292 292 292 292 293 293 293 293 294
292 291 290 290 289 288 288 288 287 287 287 287 287 286 286 285 285 285 285 285 284 284 284 284 284 284 284 284 284 284 284 284 284 284 284 284 285 285 285 286 286 287 287 288 288 288 288 288 288 288 288 288 288 288 288 289 289 289 289 289 289 289 289 289 290 290 290 291 291 291 291 291 291 292 292 292 292 292 292 292 292 293 293 293 293 293
291 291 290 289 288 288 288 287 287 287 287 287 286 286 285 285 285 285 284 284 284 284 284 284 284 284 284 283 283 283 283 283 283 283 283 283 283 284 284 285 285 286 286 287 287 287 287 287 287 287 287 287 287 288 288 288 288 288 288 288 288 289 289 289 290 290 290 291 291 291 291 291 291 292 292 292 292 292 292 292 292 292 293 293 293 293
290 289 289 288 288 288 287 287 287 287 287 286 285 285 285 284 284 284 284 284 284 284 284 284 284 284 284 283 283 283 283 283 283 283 283 283 283 283 283 284 284 285 285 286 286 286 286 286 286 286 286 287 287 287 287 287 287 287 287 288 288 289 289 290 290 290 291 291 291 291 291 291 292 292 292 292 292 292 292 292 292 292 293 293 293 293
289 288 288 288 288 287 287 287 287 286 286 285 285 284 284 284 284 284 284 284 284 284 284 284 284 284 284 283 283 283 283 283 282 282 282 283 283 283 283 283 283 284 284 285 285 285 286 286 286 286 286 286 286 286 286 286 286 286 287 288 288 289 289 290 290 291 291 291 291 291 292 292 292 292 292 292 292 292 292 292 292 292 292 292 293 292
289 288 288 288 287 287 287 286 286 286 286 285 284 283 283 283 283 283 284 284 283 283 283 283 283 284 284 284 283 283 282 282 282 282 282 282 282 282 282 283 283 283 283 283 284 284 284 284 285 285 285 285 285 285 285 285 285 286 287 287 288 289 289 290 290 291 291 291 291 292 292 292 292 292 292 292 292 292 292 292 292 292 292 292 292 292
288 288 287 287 287 287 287 286 286 286 285 285 284 283 283 282 282 283 283 283 283 283 282 282 282 283 283 284 283 283 282 282 282 282 282 282 282 282 282 282 282 282 282 283 283 283 283 283 283 284 284 284 284 284 284 284 285 286 287 287 288 289 289 290 290 290 290 291 291 291 291 291 291 291 291 291 291 291 291 291 291 291 291 291 291 291
288 287 287 287 286 286 286 286 286 285 285 285 284 283 283 282 282 282 282 282 282 282 282 282 282 282 282 283 283 283 282 282 282 282 282 282 282 282 282 282 282 282 282 282 282 282 282 282 282 283 283 282 282 282 283 284 285 286 287 287 288 288 289 289 290 290 290 290 289 290 289 289 289 289 290 290 290 290 290 290 290 291 291 291 291 291
287 287 287 286 286 286 286 286 286 285 285 285 284 283 283 283 282 282 282 282 282 282 282 282 282 282 282 282 282 282 282 282 281 281 281 282 282 282 282 282 282 282 282 282 282 282 281 281 281 281 281 281 281 282 283 284 285 286 287 287 288 288 288 289 289 289 289 289 289 288 289 289 289 289 289 289 289 290 290 290 290 290 290 290 290 290
287 287 286 286 286 286 286 286 286 285 285 284 283 283 283 283 283 283 282 282 282 282 281 281 282 282 282 282 282 282 282 281 281 281 281 281 281 281 281 281 282 281 281 281 281 281 281 281 281 281 281 280 281 282 283 284 285 286 286 287 287 287 288 288 288 288 288 288 288 288 288 288 288 289 289 289 289 289 289 290 290 290 289 290 290 290
287 286 286 286 286 286 286 286 285 285 284 284 283 283 283 283 283 283 283 282 282 282 281 281 281 281 282 282 282 281 281 281 281 281 281 281 281 281 281 281 281 281 281 281 281 281 281 281 280 280 280 280 281 282 283 284 285 286 286 286 287 287 287 287 287 287 287 287 287 287 288 288 288 288 288 289 289 289 289 289 289 289 289 289 289 289
286 286 286 286 286 286 285 285 285 284 284 284 283 283 283 283 284 283 283 282 282 282 281 281 281 281 281 282 281 281 281 281 280 280 280 280 281 281 281 281 281 281 281 281 280 280 280 280 280 280 280 280 281 282 283 284 285 285 286 286 286 286 286 286 286 286 286 287 287 287 287 288 288 288 288 288 288 288 288 288 288 289 289 289 289 289
286 286 286 286 286 285 284 284 284 284 284 284 284 284 284 284 283 283 283 282 282 282 281 281 281 281 281 281 281 281 281 280 280 280 280 280 281 281 281 281 280 281 280 280 280 280 280 280 280 280 280 280 281 282 283 284 284 285 285 285 285 286 286 286 286 286 286 286 286 287 287 287 287 287 287 288 288 288 288 288 288 288 288 288 289 289
286 286 286 286 285 285 284 284 284 284 284 284 284 284 284 284 283 283 283 282 282 282 281 281 281 281 281 281 281 281 281 280 280 279 279 279 280 281 281 280 280 280 280 280 280 280 280 280 280 280 280 280 281 281 282 283 284 284 285 285 285 285 285 285 285 285 285 286 286 286 286 287 287 287 287 287 287 287 288 288 288 288 288 288 289 289
286 286 286 285 285 284 284 284 284 284 284 284 284 284 284 284 283 283 283 282 282 281 281 281 280 280 280 281 281 281 281 280 280 279 279 279 280 280 280 280 280 280 280 280 280 280 280 280 280 280 280 280 280 281 282 283 284 284 284 284 284 284 284 284 285 285 285 285 285 286 286 286 286 286 286 287 287 287 287 287 287 288 288 288 288 289
286 286 285 285 284 284 284 284 284 284 284 284 284 285 284 284 283 283 283 282 282 281 281 281 280 280 280 280 280 280 280 280 279 279 279 279 280 280 280 280 280 280 279 279 280 280 280 280 280 280 280 280 280 281 282 283 283 283 283 284 284 284 284 284 284 284 285 285 285 285 285 286 286 286 286 286 287 287 287 287 287 287 288 288 288 289
285 285 285 285 285 284 284 284 284 284 284 284 285 285 285 284 283 283 283 282 282 281 281 280 280 280 280 280 280 280 280 280 279 279 279 279 279 280 280 280 280 279 279 279 279 280 279 279 280 280 280 280 280 281 282 282 283 283 283 283 283 283 283 284 284 284 284 284 285 285 285 285 285 286 286 286 286 286 287 287 287 287 287 288 288 288
285 285 285 285 284 284 284 284 284 284 284 284 285 285 285 284 284 283 283 282 281 281 280 280 280 280 280 280 280 280 280 280 279 279 279 279 279 280 280 280 279 279 279 279 279 279 279 279 279 280 280 280 280 280 281 282 282 282 282 283 283 283 283 283 283 284 284 284 284 284 285 285 285 285 285 286 286 286 286 287 287 287 287 287 287 287
285 284 284 284 284 284 284 284 284 284 284 285 285 285 285 284 283 283 282 282 281 281 280 280 280 280 280 280 280 280 280 280 279 279 279 279 279 279 279 279 279 279 279 279 279 279 279 279 279 279 279 279 280 280 281 281 281 282 282 282 282 282 283 283 283 283 283 284 284 284 284 284 285 285 285 285 286 286 286 286 286 287 287 287 286 286
284 284 284 284 284 284 284 284 285 285 285 285 285 285 284 284 283 282 282 281 281 280 280 280 280 280 280 280 280 280 280 280 279 279 279 279 279 279 279 279 279 279 279 279 279 279 279 279 279 279 279 279 279 280 280 280 281 281 281 282 282 282 282 282 282 283 283 283 283 284 284 284 284 284 285 285 285 285 286 286 286 286 286 286 286 285
284 284 284 284 284 285 285 285 285 285 285 286 286 285 285 284 283 282 281 281 280 280 280 280 280 280 279 280 280 280 280 280 279 279 279 279 279 279 279 279 279 279 279 279 279 279 279 279 279 279 279 279 279 279 280 280 280 280 281 281 281 281 282 282 282 282 282 283 283 283 283 284 284 284 284 284 285 285 285 286 286 286 285 285 285 284
284 284 284 285 285 285 285 285 285 285 286 286 285 285 285 284 283 282 281 280 280 280 280 280 279 279 279 279 279 279 279 279 279 279 279 279 279 279 279 279 279 279 279 279 279 278 279 279 279 279 279 279 279 279 279 279 280 280 280 280 281 281 281 281 281 282 282 282 282 283 283 283 283 284 284 284 284 285 285 285 285 285 285 284 284 283
284 284 285 285 285 285 285 285 285 285 285 285 285 285 284 283 282 281 281 281 280 280 279 279 279 279 279 279 279 279 279 279 279 279 279 279 279 279 279 279 279 279 278 278 278 278 278 279 279 279 279 279 279 279 279 279 279 280 280 280 280 280 281 281 281 281 281 282 282 282 282 283 283 283 283 284 284 284 285 285 284 284 284 284 283 282
285 285 285 285 285 285 284 284 284 284 284 284 284 284 283 282 281 281 281 281 280 280 279 279 279 279 279 279 279 279 279 279 279 279 279 279 278 279 279 279 279 278 278 278 278 278 279 279 279 279 279 279 279 279 279 279 279 279 279 279 280 280 280 280 280 281 281 281 281 282 282 282 282 282 283 283 283 284 284 284 284 284 284 283 282 282
284 284 284 284 284 283 283 283 283 283 283 283 283 283 282 281 281 280 280 280 280 280 280 279 279 279 279 279 279 279 279 279 279 279 279 279 278 279 279 279 278 278 278 278 278 278 279 279 279 279 279 279 279 279 279 279 279 279 279 279 279 279 279 280 280 280 281 281 281 281 281 282 282 282 282 283 283 284 284 284 283 283 283 282 282 281
283 283 283 283 283 283 282 282 282 282 282 282 282 282 281 281 280 280 280 280 280 280 280 280 280 279 279 279 279 279 279 279 279 279 279 278 278 278 279 278 278 278 278 278 278 278 279 279 279 279 279 279 279 279 279 279 279 279 279 279 279 279 279 279 280 280 280 280 280 281 281 281 281 281 282 282 283 283 283 283 283 283 282 282 281 281
283 283 283 283 282 282 282 282 282 281 281 281 281 281 280 280 280 280 280 280 280 280 279 279 279 279 279 279 278 279 279 279 279 279 278 278 278 278 278 278 278 278 278 278 278 278 279 279 279 279 279 279 279 279 279 279 279 279 278 278 278 278 279 279 279 279 280 280 280 280 280 280 281 281 281 282 282 283 283 282 282 282 282 282 281 281
283 283 283 282 282 282 282 281 281 281 280 280 280 280 280 280 280 280 280 280 280 280 279 279 279 279 279 278 278 278 278 279 279 278 278 278 278 278 278 278 278 278 278 278 278 278 278 279 279 279 279 279 278 278 278 278 279 279 278 278 278 278 278 279 279 279 279 279 279 279 280 280 280 281 281 282 282 282 282 282 282 282 282 281 281 281
283 283 282 282 282 281 281 280 280 280 280 280 280 280 280 280 280 280 280 280 279 279 279 279 279 279 278 278 278 278 278 278 278 278 278 278 278 278 278 278 278 278 278 278 278 278 278 278 279 279 278 278 278 278 278 278 278 278 278 278 278 278 278 278 278 278 278 278 279 279 279 279 280 280 281 281 282 282 281 282 282 282 281 281 281 281
282 282 282 282 281 281 280 280 280 280 280 280 280 280 280 280 280 280 280 279 279 279 279 279 278 278 278 278 278 278 278 278 278 278 278 278 278 277 277 277 277 277 277 278 278 278 278 278 278 278 278 278 278 278 278 278 278 278 278 278 278 278 278 278 278 278 278 278 278 278 278 279 279 280 281 281 281 281 281 281 281 281 281 281 281 281
282 282 282 281 281 280 280 280 280 280 280 280 280 280 280 280 280 279 279 279 279 279 279 278 278 278 278 278 278 278 278 278 278 278 277 277 277 277 277 277 277 277 277 277 277 277 278 278 278 278 278 278 278 278 278 278 278 278 278 278 278 278 278 278 278 278 278 278 278 278 278 279 279 280 280 280 280 280 280 280 281 281 281 281 281 281
282 281 281 281 280 280 280 280 280 280 280 280 280 279 279 279 279 279 279 279 279 279 279 278 278 278 278 277 277 277 277 278 278 278 277 277 277 277 277 277 277 277 277 277 277 277 277 277 277 277 278 278 278 278 278 278 278 278 278 278 278 278 278 278 278 278 278 278 278 278 278 279 279 280 280 280 280 280 280 280 280 280 280 280 280 280
281 281 280 280 280 280 280 280 280 280 280 279 279 279 279 279 279 279 279 279 279 279 278 278 278 278 278 277 277 277 277 277 277 277 277 277 277 276 276 276 276 276 276 276 277 277 277 277 277 277 277 277 277 278 278 278 278 278 278 278 278 278 278 278 278 278 278 278 278 278 279 279 279 279 279 279 279 279 279 279 279 279 280 280 280 280
281 280 280 280 280 280 280 279 279 279 279 279 279 279 279 279 279 279 279 279 278 278 278 278 278 278 278 277 277 277 277 277 277 277 277 277 277 276 276 276 276 276 276 276 276 276 276 276 276 277 277 277 277 277 278 277 277 277 277 277 277 278 278 278 278 278 278 278 278 279 279 279 279 279 279 279 279 279 279 279 279 279 279 279 280 280
280 280 279 279 279 279 279 279 279 279 279 279 279 279 279 279 278 278 278 278 278 278 278 278 278 278 278 278 277 277 277 277 277 277 277 277 277 276 276 276 276 276 276 276 276 276 276 276 276 276 276 277 277 277 277 277 277 277 277 277 278 278 278 278 278 278 278 278 278 279 279 279 279 278 278 278 278 278 278 278 278 278 279 279 279 279
279 279 279 279 279 279 279 279 279 279 279 279 278 278 278 278 278 278 278 278 278 278 278 278 278 278 278 278 277 277 277 277 277 276 276 276 276 276 276 276 276 276 276 276 276 275 275 275 276 276 276 276 277 277 277 277 277 277 277 277 278 278 278 278 278 278 278 278 278 279 279 279 278 278 278 278 278 278 278 278 278 278 278 279 279 279
279 279 279 279 279 279 279 279 279 279 279 279 279 278 278 278 278 279 279 279 279 279 278 278 278 278 278 277 277 277 277 277 276 276 276 276 276 276 276 276 276 276 275 275 275 275 275 275 275 275 276 276 276 276 276 277 277 277 277 278 278 278 278 278 278 278 278 278 278 278 278 278 278 278 278 278 278 278 278 278 278 278 278 279 279 279
279 279 279 279 279 279 279 279 279 279 279 279 279 278 278 278 278 278 278 279 279 279 278 278 279 278 278 278 277 277 276 276 276 276 276 276 276 276 275 275 275 275 275 275 275 275 275 275 275 275 275 276 276 276 276 276 277 277 277 278 277 277 277 278 278 278 278 278 278 278 278 278 278 278 278 278 278 278 278 278 278 278 279 279 279 279
279 279 279 279 279 279 279 279 279 279 279 279 278 278 278 278 277 277 277 277 277 277 277 277 277 277 277 277 277 277 277 276 276 276 276 276 276 275 275 275 275 275 275 275 274 274 275 275 275 275 276 276 276 276 276 276 276 277 277 277 277 277 278 278 278 278 278 278 278 278 278 278 278 278 278 278 278 278 278 278 278 279 279 279 279 279
279 279 279 279 279 279 279 279 279 279 279 278 278 278 278 277 277 277 277 276 276 276 276 276 276 276 276 276 276 277 277 277 276 276 276 276 275 275 275 275 275 275 275 274 274 274 275 275 275 275 275 276 276 276 276 276 276 277 277 277 277 277 278 278 278 278 278 278 278 278 278 278 278 278 278 278 278 278 278 278 279 279 279 279 279 279
279 279 279 279 279 279 279 279 278 278 278 278 278 278 277 277 277 276 276 276 276 275 275 275 275 275 275 275 275 275 276 276 276 276 276 276 275 275 275 275 275 274 274 274 274 274 274 275 275 275 275 275 275 275 276 276 276 276 277 277 277 278 278 278 278 278 278 278 278 278 278 278 278 278 278 278 278 278 278 279 279 279 279 279 279 279
279 279 279 279 279 278 278 278 278 278 278 278 278 277 277 276 276 276 276 275 275 275 275 274 274 274 274 275 275 275 275 276 276 276 276 275 275 275 275 275 274 274 274 274 274 274 274 274 275 275 275 275 275 275 275 276 276 276 277 277 278 278 278 278 278 278 278 278 278 278 278 278 278 278 278 278 278 278 279 279 279 279 279 279 279 279
279 279 278 278 278 278 278 278 278 278 278 278 277 277 276 276 276 276 275 275 275 274 274 274 274 274 274 274 274 275 275 275 275 275 275 275 275 275 275 274 274 274 274 274 274 274 274 274 275 275 275 275 275 275 275 276 276 276 277 277 278 278 278 278 278 278 278 278 278 278 278 278 278 278 278 278 278 279 279 279 279 279 279 279 279 279
279 278 278 278 278 278 278 278 278 278 278 277 277 276 276 276 275 275 275 275 274 274 274 274 274 274 274 274 274 275 275 275 275 275 275 274 274 274 274 274 274 274 274 274 274 275 275 275 275 275 275 275 275 275 275 276 276 277 277 278 278 278 278 278 278 278 278 278 278 278 278 278 278 278 278 278 278 279 279 279 279 279 279 279 279 279
278 278 278 278 278 278 278 278 278 277 277 276 276 276 276 275 275 275 275 274 274 274 274 274 274 274 274 274 274 275 275 275 275 274 274 274 274 274 274 274 274 274 275 275 275 275 275 275 276 276 276 275 275 275 276 276 277 278 278 278 278 278 278 278 278 278 278 278 278 278 278 278 278 278 278 278 278 279 279 279 279 279 279 279 280 280
278 278 278 278 278 278 277 277 277 277 276 275 275 275 275 275 275 274 274 274 274 274 274 274 274 274 274 274 275 275 275 275 274 274 274 274 274 274 274 274 274 274 275 275 275 275 275 276 276 277 277 277 276 276 277 278 278 278 278 278 277 277 278 278 278 278 278 278 278 278 278 278 278 278 278 278 279 279 279 279 279 279 280 280 280 280
278 278 278 278 277 277 277 277 276 276 275 275 275 275 275 275 275 274 274 274 274 274 274 274 274 274 274 274 275 275 275 274 274 274 274 274 274 274 274 274 274 275 275 275 275 276 276 276 277 277 278 278 278 278 278 278 278 278 277 277 277 277 278 278 278 278 278 277 278 278 278 278 278 278 278 279 279 279 279 279 279 280 280 280 280 280
278 278 278 277 277 277 276 276 275 275 275 275 275 274 275 275 274 274 274 274 274 274 274 274 274 274 274 275 275 275 275 274 274 274 274 274 274 274 274 274 274 275 275 275 275 276 276 277 277 277 278 278 279 279 278 278 278 277 277 277 277 278 278 277 277 277 277 277 278 278 278 278 278 279 279 279 279 279 279 279 280 280 280 280 280 280
Wind_Speed
8 6 4 4 5 6 7 8 9 10 11 12 13 14 14 14 14 13 11 10 9 9 9 10 10 11 11 11 11 10 10 11 12 14 14 14 15 15 16 16 17 17 17 17 17 17 17 17 17 17 17 17 18 18 18 18 18 18 18 18 18 19 19 19 19 19 19 19 20 20 20 20 20 20 20 21 21 21 21 21 22 22 22 22 22 23
7 6 4 4 5 6 6 8 9 10 11 12 13 14 15 15 14 13 11 9 8 9 9 10 10 11 11 11 10 9 9 10 12 14 14 15 15 15 16 17 17 17 17 17 17 17 17 17 17 18 18 18 18 18 18 18 18 18 18 18 19 19 19 19 19 19 19 20 20 20 20 20 20 21 21 21 21 21 21 21 22 22 22 22 23 23
7 5 4 4 4 5 6 7 8 9 10 11 13 14 15 15 14 13 11 9 8 9 9 10 11 11 10 10 9 9 9 10 13 14 14 15 15 16 16 17 17 17 17 16 17 17 17 17 18 18 18 18 18 18 18 18 18 18 18 19 19 19 19 19 19 19 19 20 20 20 20 20 21 21 21 21 21 21 21 22 22 22 22 23 23 23
6 4 3 3 4 5 5 6 7 9 10 11 12 14 15 15 14 13 11 10 9 9 10 11 11 11 10 9 9 8 9 11 13 14 14 15 16 16 17 17 17 17 16 16 17 17 17 18 18 18 18 18 18 18 18 18 18 18 18 19 19 19 19 19 19 19 20 20 20 20 21 21 21 21 21 22 22 22 22 22 22 23 23 23 23 24
6 4 2 2 3 3 5 5 7 8 10 11 13 14 15 14 13 12 11 10 9 10 11 12 12 11 10 9 9 9 10 11 12 13 14 15 16 16 16 16 16 16 16 16 17 17 18 18 18 19 18 18 18 18 18 18 18 18 19 19 19 19 19 19 19 20 20 20 20 20 21 21 21 21 22 22 22 22 22 23 23 23 23 23 24 24
5 3 2 2 2 2 4 5 7 9 11 13 14 14 14 14 13 12 12 12 11 12 12 13 13 12 10 9 9 10 11 13 14 15 16 17 16 16 15 15 15 15 16 16 17 17 18 19 19 19 19 19 19 18 18 18 18 18 19 19 19 19 19 19 19 20 20 20 20 20 21 21 21 21 22 22 22 22 23 23 23 23 24 24 24 24
4 3 2 1 1 2 3 5 7 10 12 14 15 15 15 14 14 14 14 14 14 14 14 14 14 13 11 10 10 11 13 15 17 18 19 18 18 16 15 14 14 14 15 16 17 18 19 19 19 19 19 19 19 19 19 19 18 18 18 19 19 19 19 19 20 20 20 20 20 20 20 21 21 21 21 21 22 22 22 23 23 24 24 24 24 24
4 4 3 2 2 1 3 5 7 10 12 14 15 15 16 16 16 15 15 15 16 17 17 17 16 15 13 12 12 14 16 18 19 20 20 20 19 17 16 15 15 15 15 16 17 18 19 19 19 19 19 19 19 19 19 19 18 18 18 18 19 19 19 19 20 20 20 20 20 20 20 20 21 21 21 21 21 22 22 23 23 23 24 24 24 24
5 5 4 3 2 0 3 5 7 10 12 13 14 15 17 19 19 18 18 18 18 19 20 21 21 19 16 15 15 17 18 20 21 21 21 21 20 18 17 16 16 16 16 17 18 19 19 19 19 19 19 19 19 19 19 18 18 18 18 18 19 19 19 20 20 20 20 20 20 20 20 20 20 20 21 21 21 21 22 22 23 23 23 23 23 24
5 5 4 3 1 1 3 5 7 9 11 12 12 13 16 19 20 20 21 21 20 21 21 22 22 22 20 18 18 19 20 21 22 21 21 21 20 19 18 17 17 17 17 18 19 19 20 19 19 19 19 19 19 19 18 18 18 18 18 19 19 19 19 20 20 20 20 20 20 20 20 20 20 21 21 21 21 22 22 22 22 22 22 22 23 23
5 5 4 3 2 2 4 5 7 9 10 11 12 13 15 18 19 19 19 20 21 22 22 22 22 22 22 21 20 21 22 24 24 24 23 22 20 19 18 18 18 18 19 20 21 21 20 19 19 19 19 19 19 18 18 18 18 18 19 19 19 19 19 19 20 20 20 20 20 20 20 21 21 21 21 21 21 21 21 21 22 22 22 22 22 22
6 5 4 3 3 3 4 5 6 8 10 12 12 13 16 18 18 17 16 17 19 21 22 23 23 22 20 19 20 21 23 25 26 26 25 24 22 21 21 20 20 21 21 22 23 22 21 20 19 19 20 20 19 17 17 18 18 19 19 19 19 19 19 19 20 20 20 20 20 20 21 21 21 21 21 21 21 21 21 21 21 21 21 21 22 22
6 5 4 3 3 4 5 6 7 9 11 13 13 13 14 16 18 17 16 16 18 19 21 22 23 22 20 17 17 19 23 26 27 26 26 25 24 23 23 23 23 24 24 24 24 24 22 21 21 22 22 21 19 17 17 18 18 19 19 19 19 19 19 19 20 20 20 20 20 20 20 20 20 20 20 20 20 20 20 20 21 21 21 21 21 21
6 5 4 4 4 4 5 7 8 9 11 12 12 12 14 15 17 18 17 17 18 19 20 20 21 21 19 15 14 17 22 25 27 27 26 25 24 23 23 24 24 25 25 25 25 24 23 23 24 25 23 21 19 18 18 18 19 19 19 19 19 19 20 20 20 20 20 20 20 20 20 20 20 20 20 20 20 20 20 20 20 21 21 21 21 21
6 5 5 4 4 4 5 6 7 9 10 10 11 12 14 15 16 17 17 17 18 19 20 19 20 19 17 14 14 17 21 24 25 25 25 25 24 23 23 24 25 25 25 25 25 24 24 24 25 26 24 21 19 18 19 19 20 20 20 20 20 20 20 20 20 20 20 20 20 20 20 20 20 20 20 20 20 20 20 20 20 20 20 20 21 21
6 6 5 5 5 5 4 5 6 8 9 10 11 13 14 15 16 16 16 16 17 18 18 18 17 16 15 14 16 19 22 24 24 23 24 25 24 23 23 23 24 25 25 25 24 24 24 25 26 26 24 21 19 18 19 19 20 20 20 20 20 20 20 20 20 20 20 20 20 20 19 20 20 20 20 20 20 20 20 20 20 20 20 20 20 20
6 6 7 7 6 5 3 4 5 7 9 10 11 12 13 14 15 16 16 16 16 16 15 14 12 10 11 15 18 20 23 24 24 23 23 23 24 23 22 23 23 24 24 24 24 24 25 26 26 26 24 21 18 18 19 20 20 20 20 20 20 20 20 20 20 20 20 20 20 19 19 20 20 20 20 20 20 20 20 20 20 20 20 20 20 20
7 7 7 7 5 4 2 3 5 7 8 10 12 13 13 13 14 15 15 15 15 14 14 13 11 9 9 13 17 20 23 23 23 22 21 22 22 22 22 22 22 23 24 24 24 23 24 26 26 26 23 20 18 18 19 20 20 20 20 21 21 21 20 20 20 20 20 20 20 20 20 20 20 20 20 20 20 20 20 20 20 20 20 20 19 19
8 7 7 6 5 3 2 3 5 7 9 11 12 13 13 13 14 15 15 15 14 13 13 13 12 12 12 15 19 22 21 21 21 21 20 20 21 22 21 21 22 23 24 24 24 24 24 26 26 25 22 20 18 18 19 20 21 21 21 21 21 21 21 21 20 20 20 20 20 20 20 20 20 20 20 20 20 20 20 20 20 20 20 19 19 19
9 7 6 5 4 3 3 4 5 7 9 11 12 13 13 13 13 14 15 15 14 14 14 13 14 14 15 18 21 22 20 19 19 19 18 19 20 20 20 20 21 22 23 23 24 24 25 26 27 25 22 20 19 18 19 20 21 21 21 21 21 21 21 21 21 21 20 20 20 20 21 20 20 20 20 20 20 20 20 20 20 19 19 19 19 19
8 7 5 4 4 3 3 4 6 7 9 11 12 12 12 12 13 14 15 15 15 15 15 14 15 16 18 19 21 21 18 18 18 17 16 17 18 18 19 19 20 22 22 23 24 24 26 27 27 25 23 20 19 19 19 20 21 21 22 22 22 22 22 22 22 22 21 21 21 21 21 21 21 21 21 21 21 20 20 20 20 19 19 19 19 19
8 7 6 5 4 4 4 5 6 8 9 11 11 11 10 10 11 13 15 16 16 16 16 16 18 19 20 20 20 19 16 15 16 16 15 15 16 18 18 18 20 21 22 23 24 25 26 27 27 25 23 20 19 18 19 19 20 21 22 22 23 23 23 23 22 22 22 22 22 22 22 22 21 21 21 21 21 21 20 20 20 19 19 19 19 19
7 7 6 5 5 5 5 6 7 8 10 10 10 9 9 10 12 13 15 15 15 16 18 19 21 21 20 19 18 17 16 15 14 15 14 11 14 18 19 19 19 20 21 23 24 26 27 27 26 25 23 21 19 18 18 19 20 21 22 23 23 23 23 23 23 23 23 23 22 22 22 22 22 21 21 21 21 21 20 20 19 19 19 19 19 19
6 7 6 6 6 5 6 7 8 9 10 10 10 10 11 12 13 14 14 14 15 17 19 21 22 21 19 17 16 16 16 15 14 13 11 11 14 18 20 20 19 19 21 23 25 26 27 27 26 25 23 21 19 18 18 19 20 21 22 23 23 23 23 23 23 23 23 23 23 23 23 22 22 22 21 21 21 20 20 20 19 19 19 19 18 18
6 6 6 6 6 6 6 6 7 8 9 9 10 11 12 13 13 13 13 14 16 18 19 20 19 18 17 16 15 15 16 15 14 12 12 12 15 19 20 20 19 20 22 24 25 25 25 26 26 25 23 21 19 18 18 19 21 22 22 23 22 22 22 23 23 23 23 23 23 23 23 22 22 22 21 21 21 20 20 19 19 19 19 18 18 17
7 6 5 5 5 5 5 5 5 6 7 7 9 11 12 13 14 14 14 15 17 18 18 16 15 15 16 15 15 16 17 15 13 11 12 14 16 19 20 19 19 20 22 23 24 24 23 24 25 25 23 21 19 19 19 20 21 22 22 22 22 22 22 22 23 23 23 24 23 23 23 22 22 22 21 21 20 20 19 19 19 19 19 18 17 17
6 6 5 4 4 4 4 4 5 6 6 7 8 10 12 13 14 14 15 16 17 16 15 14 13 13 15 15 15 17 18 15 11 10 14 16 17 18 19 19 20 20 21 22 23 22 22 22 22 23 22 20 20 20 21 21 22 22 22 22 21 21 22 22 23 23 23 24 23 23 23 22 22 22 21 21 20 20 19 19 19 19 18 17 17 17
6 5 5 4 3 3 4 4 5 6 7 7 8 9 10 12 13 14 15 15 15 14 13 12 11 11 12 13 16 18 18 14 10 11 16 18 17 17 19 20 20 20 21 22 22 22 20 20 20 19 19 19 20 22 23 23 23 23 22 21 21 21 21 22 22 23 23 24 23 23 23 22 22 21 21 20 20 19 19 19 19 19 18 17 17 17
4 3 2 1 2 4 6 7 7 7 7 7 7 8 9 10 11 12 13 14 14 13 12 12 12 12 12 15 17 17 15 11 10 14 18 18 17 17 18 19 19 19 20 21 22 21 18 17 16 16 17 18 21 23 25 25 25 24 23 22 21 21 22 22 22 23 23 23 23 23 22 22 22 21 20 20 20 19 19 19 19 19 17 17 16 16
2 1 1 3 4 6 8 9 9 9 8 7 7 7 7 8 9 10 11 12 13 12 12 12 13 13 14 15 14 12 10 10 13 17 20 18 16 17 18 18 17 18 19 19 16 14 15 16 15 14 15 18 21 24 25 26 25 25 24 24 23 22 22 22 22 22 23 23 23 22 22 22 21 20 20 20 19 18 18 19 19 19 17 16 16 15
1 2 3 4 5 7 8 8 8 8 7 7 6 6 6 7 8 9 10 11 12 12 13 13 13 14 14 12 8 5 6 12 17 19 20 17 16 17 18 17 17 17 17 15 9 5 10 13 14 15 16 19 21 23 24 24 24 23 23 24 24 23 23 22 22 22 22 22 22 22 22 21 20 20 19 19 19 18 19 19 19 19 18 17 16 16
2 3 4 5 6 7 7 7 7 7 7 6 6 6 6 7 8 9 10 11 11 12 13 13 14 14 14 12 8 6 9 15 19 20 19 17 16 17 17 17 17 17 16 15 11 8 7 8 15 21 21 21 21 21 22 22 22 22 22 23 23 24 23 23 22 22 21 22 21 21 21 20 20 19 19 18 18 18 19 19 19 19 18 18 17 15
2 3 5 6 6 6 6 7 7 7 7 7 7 7 8 8 9 9 10 11 11 12 13 14 14 15 15 15 13 13 15 19 20 20 18 17 16 16 17 17 17 17 17 16 15 14 12 13 18 23 24 22 21 20 21 20 20 20 21 22 23 24 24 23 23 22 22 22 22 21 21 20 19 18 17 17 17 18 19 19 19 19 18 18 17 15
3 4 5 6 6 6 6 6 7 7 8 8 9 9 9 10 10 10 11 11 11 12 12 13 14 15 15 15 15 16 18 20 21 20 19 18 17 17 18 18 17 17 18 17 16 16 16 18 20 21 22 23 22 20 19 19 19 20 21 22 23 23 24 24 23 23 23 22 22 22 21 19 18 17 16 16 17 18 19 20 19 19 17 17 16 16
3 4 5 6 6 6 7 7 8 9 9 10 10 11 11 11 12 12 12 12 12 12 12 13 13 14 15 15 16 17 18 21 21 20 18 19 18 18 18 17 17 17 17 17 16 16 16 18 20 20 20 21 22 20 19 18 19 20 21 21 22 22 23 23 23 23 23 23 22 21 20 18 17 16 16 17 18 19 20 19 19 18 17 16 16 16
3 5 6 6 7 8 8 9 10 11 11 11 12 12 12 13 13 13 13 13 13 13 13 13 14 14 15 16 17 19 21 22 20 18 17 18 19 19 17 16 17 17 17 17 16 16 16 18 20 20 20 19 19 19 20 20 20 21 21 21 21 22 22 22 22 22 23 22 21 20 18 17 17 17 17 18 19 19 19 19 18 18 17 16 16 15
3 4 6 7 8 9 10 11 12 12 13 13 13 13 13 13 13 13 13 13 14 14 15 15 16 16 16 16 17 18 19 19 18 16 16 16 17 18 18 17 17 18 17 17 17 17 17 18 19 20 18 17 16 17 20 22 22 22 21 21 21 21 21 21 21 21 21 20 19 18 17 17 17 18 18 19 19 19 19 19 18 18 17 16 15 15
4 5 6 8 9 10 11 12 12 13 13 13 14 14 14 14 14 15 15 15 15 16 17 18 18 18 17 16 16 15 15 15 15 15 15 15 15 17 18 18 19 19 19 18 18 18 18 16 14 13 14 17 18 19 20 21 22 22 22 22 21 20 20 20 21 21 20 19 18 17 17 17 18 18 19 19 19 19 19 19 19 18 17 17 16 15
5 6 7 9 10 10 11 12 12 13 13 13 13 14 14 15 15 16 16 17 17 18 19 19 20 19 18 16 14 13 13 13 13 14 14 14 14 15 17 19 20 20 20 20 20 19 18 16 14 13 13 16 19 20 21 20 20 21 23 22 21 19 19 20 20 20 19 18 17 17 17 18 19 19 19 19 19 19 19 19 19 19 18 18 17 16
6 7 8 9 9 10 11 11 12 12 12 13 13 14 15 16 17 17 18 18 19 19 19 19 19 19 17 16 14 13 12 12 12 13 13 14 14 15 16 18 19 21 21 21 21 20 19 18 17 17 17 17 18 19 20 20 20 20 21 20 19 19 20 20 20 19 18 17 17 17 18 19 19 19 19 19 19 19 18 19 19 19 18 17 16 16
7 7 8 8 8 9 10 10 11 12 12 13 14 15 16 17 18 19 20 20 20 20 20 20 19 18 17 15 14 13 13 13 13 13 14 15 15 16 16 17 18 20 21 21 21 20 19 18 18 18 18 18 18 19 19 19 19 19 19 18 19 20 21 20 19 18 17 17 18 18 18 19 19 19 20 20 20 20 19 19 19 18 17 16 15 14
7 8 8 8 9 9 10 10 11 12 13 14 15 16 17 18 19 20 21 22 22 22 22 22 22 22 22 19 17 16 15 15 15 15 16 16 17 17 17 18 18 19 20 21 21 20 19 18 18 17 17 17 18 18 19 19 19 18 17 18 20 21 21 19 18 17 18 18 19 19 19 19 19 20 21 21 21 21 20 19 18 17 16 15 15 15
7 8 8 9 9 10 11 11 12 13 14 15 16 16 16 17 17 18 19 21 21 22 21 21 22 22 23 23 22 20 18 17 17 17 17 18 18 19 19 19 19 19 20 20 20 20 20 19 17 17 17 17 17 17 18 19 19 19 18 18 19 19 17 18 19 19 19 19 19 20 19 20 20 21 21 21 21 21 20 19 18 16 16 15 15 16
7 8 8 9 10 11 12 13 14 15 16 16 16 16 16 16 16 16 18 19 20 21 20 20 20 20 20 21 22 22 22 21 19 19 19 19 19 19 20 20 20 19 19 19 19 20 20 20 19 18 18 17 17 17 17 18 19 19 19 18 18 17 16 18 20 21 20 20 20 20 20 21 21 21 21 21 21 20 19 18 18 17 17 16 16 16
8 9 9 10 11 12 14 15 16 16 16 16 16 16 16 15 15 16 18 19 20 20 19 18 17 17 17 18 20 21 22 22 21 21 21 21 21 20 20 20 20 20 19 19 19 19 20 20 21 21 20 19 17 17 17 18 19 19 19 18 17 17 18 19 20 20 20 21 21 21 22 22 22 21 21 20 20 19 18 17 17 17 17 17 16 16
9 10 11 12 13 14 15 16 16 17 16 15 15 15 15 15 16 17 18 19 19 19 18 16 15 14 14 16 18 19 20 20 21 22 22 23 23 23 22 21 20 20 19 19 19 19 20 21 22 22 22 20 19 18 19 18 18 18 19 18 18 18 18 19 19 20 20 20 21 22 22 23 22 20 19 19 19 19 18 17 17 17 17 17 16 16
10 11 12 13 14 14 15 16 17 17 16 16 15 15 16 16 17 18 18 19 19 17 16 15 15 15 15 16 17 17 18 19 20 21 23 23 24 24 23 22 21 20 19 19 19 19 19 20 21 21 21 20 18 18 18 18 17 17 18 18 19 19 19 19 20 20 20 20 21 22 23 22 21 20 19 19 19 19 19 18 17 17 17 16 16 16
11 12 13 14 14 15 16 17 17 17 17 16 16 16 17 17 17 18 19 19 18 16 15 15 15 16 16 16 16 16 16 17 18 20 22 23 23 24 24 24 24 22 21 20 18 17 17 17 16 17 18 19 18 17 17 17 17 16 17 18 19 19 19 19 20 20 19 20 21 22 22 21 20 19 19 19 19 19 19 19 18 18 17 16 15 15
11 12 13 14 15 16 17 17 17 17 16 16 16 17 18 18 17 18 18 18 17 15 14 14 15 16 16 16 16 15 15 16 18 19 20 21 22 23 24 25 25 25 24 22 20 18 16 15 13 12 12 14 16 17 17 17 17 17 18 18 19 19 19 19 20 20 20 20 21 21 21 20 19 19 19 18 18 19 20 19 19 18 16 15 15 15
10 11 13 14 15 16 16 16 16 15 15 15 16 17 19 19 19 18 18 18 16 14 13 14 14 15 15 16 16 16 16 17 18 19 20 21 21 22 23 24 25 26 25 24 23 21 19 16 14 12 9 8 10 13 15 17 19 19 19 18 18 18 18 19 20 20 20 20 21 21 20 20 19 18 17 17 17 19 19 19 19 18 16 15 15 15
11 11 13 14 15 15 15 14 14 14 14 14 15 17 19 19 19 19 19 18 16 14 13 14 14 14 14 14 15 16 16 17 18 19 20 21 21 21 21 22 23 23 23 23 23 22 20 18 15 14 12 8 7 9 12 16 19 19 18 18 18 18 19 20 21 21 21 21 20 20 20 19 18 17 16 16 16 17 18 18 19 18 18 17 16 16
Wind_Direction
174 182 202 233 258 274 286 293 298 301 304 307 311 316 321 326 328 328 327 325 325 326 327 328 326 324 322 319 314 312 319 327 330 330 329 328 327 326 326 326 326 326 326 327 327 327 327 327 326 324 322 320 318 316 315 314 313 312 312 312 311 311 310 309 308 307 307 306 306 306 306 307 307 307 308 308 308 309 309 310 310 310 310 310 310 310
182 193 211 243 268 283 294 301 304 308 310 314 319 323 327 329 330 330 328 327 328 331 333 334 332 329 326 322 317 315 321 329 332 331 330 328 327 326 326 326 326 326 326 327 328 328 329 329 327 326 324 321 319 317 316 314 313 312 312 311 311 311 310 310 309 308 307 306 306 305 306 306 306 306 306 307 308 308 308 308 309 309 309 310 310 310
183 196 220 256 279 292 300 308 311 314 317 322 325 328 331 333 334 334 334 332 331 334 338 340 340 337 332 326 321 320 326 332 332 331 329 328 327 327 326 326 325 326 326 327 328 329 329 329 328 327 325 323 321 319 317 315 314 313 312 312 312 311 311 310 310 309 307 306 306 305 305 305 305 305 305 306 307 307 308 308 308 308 309 309 309 309
186 198 226 266 287 294 298 308 315 319 322 326 330 332 335 337 339 340 340 338 336 336 340 345 347 345 340 333 328 329 333 334 332 330 329 328 327 327 326 326 326 326 327 327 328 329 329 329 328 327 326 324 322 320 318 317 315 315 313 313 313 312 312 311 311 310 308 307 306 305 305 305 304 305 305 305 306 306 307 307 308 308 309 308 308 308
187 199 230 272 295 300 301 307 314 320 324 329 334 338 340 342 344 344 344 343 342 342 345 349 353 353 350 343 339 338 339 336 333 331 330 329 329 327 327 326 327 327 327 328 328 329 329 329 328 327 326 325 323 322 320 318 317 316 315 315 314 314 313 313 312 311 309 308 307 306 305 305 305 305 305 305 305 306 306 307 307 308 308 307 307 308
179 193 228 264 288 304 312 318 322 326 331 335 339 343 346 347 348 350 352 352 350 348 348 351 355 358 356 352 347 343 341 338 336 335 334 334 333 331 329 328 328 328 328 328 329 328 328 328 328 327 326 325 324 323 321 320 319 318 318 318 317 316 315 314 313 312 311 309 308 307 307 306 305 305 305 305 305 305 306 306 307 307 307 307 307 308
170 181 208 228 254 280 305 322 330 336 342 346 347 348 349 350 352 354 356 357 355 352 349 350 353 357 359 356 351 346 343 340 339 338 338 337 337 336 335 333 331 330 329 329 329 329 328 328 327 327 326 326 325 324 322 321 321 320 320 320 319 318 317 316 315 314 312 311 311 309 309 308 307 306 305 305 305 306 306 307 307 307 307 307 307 308
153 163 171 168 185 251 299 323 337 346 351 355 357 356 354 353 353 353 354 356 355 354 351 349 350 353 356 356 353 349 346 343 340 339 338 338 339 339 339 336 334 333 332 331 330 329 328 328 327 327 327 326 325 325 324 323 323 322 322 322 321 319 318 317 316 316 315 314 313 312 311 311 310 310 310 309 309 310 310 310 309 308 308 309 309 309
148 149 156 160 167 269 335 340 347 355 360 2 4 5 3 359 355 352 351 353 354 354 352 350 349 349 351 352 352 350 347 343 339 337 336 337 339 341 341 339 337 336 336 334 332 331 330 329 328 327 327 327 327 326 325 325 325 324 324 323 322 321 320 319 319 319 319 318 317 317 317 317 317 317 317 316 316 315 314 313 312 311 310 310 310 309
150 143 139 141 146 348 1 1 357 356 2 4 7 10 10 6 360 354 350 349 350 350 350 348 347 346 347 349 350 349 345 340 336 334 334 336 339 341 342 340 339 338 337 336 334 333 333 332 330 329 328 328 327 327 327 327 327 326 325 324 323 322 322 321 322 322 322 321 321 322 322 321 320 319 319 318 317 315 314 314 313 312 311 310 310 309
140 140 130 113 80 24 12 10 1 357 358 360 3 8 11 10 5 358 351 345 344 345 345 345 344 344 343 345 347 346 342 337 334 333 334 337 340 343 343 342 340 339 338 337 336 337 336 335 333 330 330 329 329 329 329 328 328 327 327 326 325 325 324 324 324 325 325 324 323 322 322 321 320 318 317 316 315 314 314 314 313 313 313 312 311 311
138 139 136 117 83 49 29 14 4 360 0 3 5 6 6 7 5 360 351 343 340 340 340 340 342 343 344 345 345 343 339 334 333 333 334 337 341 345 345 343 341 340 339 339 339 340 340 338 335 333 333 334 334 333 331 330 329 329 328 328 328 327 327 326 326 326 325 324 323 322 321 320 319 318 317 316 316 316 316 316 316 316 316 315 314 314
147 145 139 123 87 55 34 21 14 11 13 15 13 6 358 359 359 357 350 343 339 338 338 336 337 340 346 348 345 340 335 332 331 332 333 336 340 344 345 342 340 339 339 339 340 342 343 340 337 337 338 339 340 338 334 332 331 330 330 330 330 329 329 328 327 326 325 324 323 323 322 321 321 320 319 319 319 319 318 318 318 318 318 317 316 315
146 147 139 118 85 57 39 28 24 22 21 18 13 5 356 354 355 354 349 343 340 340 340 336 334 336 342 346 343 337 333 332 331 331 332 333 338 342 343 340 338 337 337 337 339 341 343 340 339 339 341 343 344 342 337 333 332 332 332 332 331 331 330 329 328 327 326 325 324 324 323 323 322 321 321 322 322 321 320 319 319 319 318 317 316 314
143 141 128 112 92 68 47 33 27 23 18 11 5 358 354 353 354 352 349 342 339 340 341 338 335 335 338 340 338 335 334 334 333 332 330 331 335 341 342 338 336 335 335 335 336 339 342 341 339 340 342 345 347 343 337 333 332 333 333 333 332 332 331 330 330 328 327 326 326 325 325 324 324 323 323 323 323 321 320 320 319 319 318 317 315 314
143 133 119 108 96 80 55 34 23 15 9 3 358 356 354 353 352 351 348 342 339 340 341 340 337 335 334 334 336 336 336 336 334 331 328 326 331 339 342 337 333 331 332 332 334 337 340 340 340 340 342 345 345 340 334 332 332 333 333 333 332 332 331 331 330 329 328 327 327 326 325 325 325 325 325 324 323 322 321 320 320 319 318 317 316 316
138 127 116 109 101 88 60 33 13 4 360 358 356 354 352 350 349 348 346 342 341 341 341 340 338 333 329 328 330 336 339 337 333 329 325 322 326 335 340 336 331 328 328 329 331 334 336 337 338 340 342 343 342 338 334 332 332 333 333 333 333 332 331 331 330 329 328 328 327 327 326 326 326 326 325 325 324 323 322 321 319 318 318 318 318 318
137 130 123 115 106 93 63 22 5 360 358 356 353 350 348 346 345 345 344 342 340 338 336 334 330 323 321 321 322 329 340 336 331 326 322 318 321 329 336 334 329 326 326 326 329 332 333 334 336 338 340 342 340 337 333 331 331 332 333 333 333 332 332 331 331 330 329 329 328 328 328 327 326 326 325 325 324 323 322 321 320 319 320 319 319 319
136 131 124 119 111 94 55 17 7 4 -0 355 349 343 340 339 341 342 342 340 337 333 329 326 321 317 314 310 315 325 338 335 329 323 319 316 317 323 331 331 328 325 324 324 327 330 330 331 334 337 340 342 341 337 332 330 330 332 333 333 333 333 332 332 331 331 330 330 329 329 328 328 327 326 325 324 324 324 322 321 320 320 320 320 321 322
133 123 112 103 97 84 47 25 16 9 0 352 345 339 333 334 337 339 339 337 334 330 327 322 317 315 313 310 316 326 337 336 329 321 316 312 313 318 326 328 326 323 321 321 325 327 327 329 332 337 340 341 340 336 331 329 330 331 332 333 333 333 333 333 332 332 331 331 330 330 329 328 327 326 325 325 324 324 323 322 321 320 321 322 324 324
128 116 104 89 82 73 47 30 20 9 357 349 342 336 331 333 336 338 338 336 333 330 328 323 317 315 314 312 316 325 338 334 326 319 314 311 311 315 323 326 325 321 318 319 322 325 325 326 330 334 338 339 337 333 328 328 329 330 331 332 333 333 333 333 333 333 333 332 331 330 329 329 327 326 326 325 325 324 323 322 321 322 323 325 326 327
120 111 101 89 79 63 44 27 14 1 351 346 339 333 331 336 338 338 337 336 334 330 327 321 318 318 318 317 320 329 338 333 323 316 313 310 309 313 321 325 324 320 317 317 320 322 324 325 327 331 334 334 332 329 327 327 328 330 331 332 333 333 333 333 333 333 333 333 331 330 330 329 328 327 326 326 325 325 324 323 323 324 326 328 328 328
106 104 98 87 71 52 32 17 5 357 352 346 340 335 335 338 339 337 335 334 333 331 327 323 323 324 325 324 327 331 334 331 324 317 312 307 308 313 320 324 323 319 315 316 318 321 322 323 324 327 330 331 329 327 327 326 327 329 331 331 332 332 333 333 333 333 332 332 331 330 330 329 328 327 327 326 325 325 325 324 325 327 328 329 329 329
97 97 90 76 58 37 17 5 359 356 352 346 340 336 334 334 332 331 330 331 332 332 331 329 328 328 328 328 328 328 330 330 326 319 313 306 307 312 319 323 322 318 314 315 318 320 321 321 323 325 327 328 327 325 325 326 328 329 330 330 331 331 331 332 332 332 332 332 331 330 329 329 328 328 327 326 326 326 325 325 327 328 330 330 329 329
89 87 80 62 43 26 13 3 357 353 351 347 342 337 334 329 326 325 326 331 335 337 337 334 330 328 327 327 325 324 326 330 327 320 316 311 310 312 317 322 322 318 314 315 318 319 319 319 321 323 325 325 325 325 324 326 328 329 329 329 330 330 330 330 331 331 331 331 331 330 329 329 329 328 327 327 326 326 326 326 328 330 331 330 329 329
75 72 64 51 34 20 10 1 355 352 351 350 343 336 329 324 321 323 330 339 344 344 341 336 330 326 325 325 324 323 325 327 325 322 323 320 316 314 317 322 322 318 314 314 316 318 317 315 316 320 323 325 325 326 326 326 327 327 328 328 328 329 329 329 330 331 331 331 330 330 330 329 329 329 328 327 327 326 326 326 328 330 331 331 329 330
78 71 62 51 36 23 11 3 358 354 351 347 341 333 323 321 324 333 343 349 350 347 341 335 329 325 325 325 322 321 322 323 321 322 328 326 320 315 316 321 322 319 315 314 314 314 313 309 311 315 320 324 325 326 326 326 326 326 327 327 327 328 329 329 330 330 331 330 330 330 330 330 330 329 328 327 327 326 327 328 330 332 332 331 330 332
94 81 72 59 36 11 351 342 342 346 349 345 340 332 323 325 337 347 349 349 349 346 339 332 326 324 322 320 318 317 319 320 321 327 332 330 321 313 315 320 322 322 318 315 314 313 310 307 308 312 317 322 324 324 325 325 326 326 327 327 327 328 329 329 329 330 330 331 330 331 331 331 330 329 328 327 326 326 327 329 331 332 332 331 332 334
117 105 86 31 345 331 323 320 321 326 336 338 337 330 325 332 343 349 347 347 345 341 332 326 323 320 317 315 315 315 318 321 327 333 335 331 321 313 316 321 323 324 323 320 318 316 313 310 310 313 317 320 322 323 324 325 327 328 328 328 328 328 329 329 329 330 330 330 330 330 331 331 330 329 328 326 326 327 328 331 333 333 332 332 333 334
119 121 308 316 319 321 321 321 320 318 319 320 322 324 328 336 343 346 344 344 343 338 327 321 318 317 318 318 318 318 318 324 329 333 335 331 322 315 318 321 322 324 327 326 324 319 315 314 314 315 317 320 320 321 323 325 327 328 329 329 329 329 330 329 329 329 329 330 330 330 330 331 330 328 326 325 325 327 330 332 333 333 333 334 334 335
53 0 335 327 323 322 321 321 319 317 312 311 312 318 328 335 339 340 340 341 341 336 327 318 315 315 318 322 323 318 311 317 323 329 333 329 320 314 318 319 319 322 327 329 328 319 315 316 316 317 319 319 319 319 322 324 325 327 328 328 328 328 329 329 329 328 328 329 329 329 330 330 328 327 325 324 326 329 331 333 333 333 334 334 334 333
9 341 330 326 323 322 320 318 317 315 314 315 316 320 325 330 333 335 335 336 336 333 328 320 315 313 313 311 305 297 299 308 317 326 330 326 317 313 315 316 316 318 321 321 316 307 308 309 312 314 317 318 317 318 320 322 324 326 328 327 327 327 328 328 328 328 328 328 328 328 328 328 326 324 323 324 326 329 331 333 333 333 333 334 333 331
340 328 322 319 318 317 317 317 318 319 322 324 326 326 326 327 327 328 328 328 329 329 328 323 318 313 310 306 300 295 297 304 314 323 327 324 317 313 314 314 314 315 317 317 311 302 296 298 305 310 313 315 315 317 319 321 324 326 327 326 325 325 327 328 328 327 327 327 326 326 326 325 324 323 323 325 327 330 330 331 332 332 332 332 332 330
323 322 318 316 314 314 315 318 322 327 331 333 334 333 330 328 325 323 322 321 322 323 325 325 322 316 311 308 304 300 299 305 315 324 326 323 317 313 313 314 314 316 318 318 315 309 302 300 304 308 311 313 314 315 318 322 324 325 325 325 324 324 325 326 327 326 326 325 325 324 325 324 323 323 324 327 329 329 329 330 330 331 331 331 330 329
314 317 319 317 318 319 323 328 331 336 339 341 341 338 335 330 326 323 320 318 318 319 321 323 324 321 315 309 305 301 300 308 317 326 327 323 317 314 313 313 315 318 319 318 317 314 310 306 307 308 310 312 313 314 317 321 323 323 323 323 323 323 323 324 325 325 324 324 323 323 323 323 324 326 327 328 328 328 328 328 329 329 330 329 329 328
318 324 327 327 329 334 337 339 342 343 345 345 343 340 336 332 327 324 321 318 317 317 318 320 322 323 320 313 306 301 302 310 319 326 328 325 321 317 313 311 315 318 319 317 316 315 312 309 308 309 309 310 312 314 317 320 323 323 323 323 323 323 323 323 324 323 323 322 322 322 322 324 326 327 328 327 327 326 326 326 327 328 328 328 328 327
324 333 340 342 344 346 348 348 349 350 349 347 344 341 337 333 329 326 323 321 319 318 318 318 319 320 321 318 313 309 309 316 323 328 328 328 325 321 316 313 316 319 319 316 315 314 312 310 310 310 309 308 309 312 316 320 322 323 322 322 322 322 322 323 324 323 321 320 321 321 322 324 326 327 326 325 325 324 324 324 325 325 326 326 326 325
349 354 356 355 355 355 354 354 353 353 351 349 346 343 338 334 331 328 326 325 324 322 321 320 319 320 321 321 320 319 320 323 326 329 329 329 328 326 323 320 319 321 320 316 313 312 310 309 309 310 309 308 307 309 312 317 319 320 320 320 320 320 321 323 324 323 321 320 320 321 323 325 326 325 324 323 323 323 323 323 323 324 324 324 323 323
12 12 9 6 3 1 358 356 354 352 350 348 345 342 337 333 329 327 327 327 327 326 325 324 323 324 326 328 330 330 331 331 332 333 333 332 331 329 327 324 323 322 321 318 314 309 305 302 300 301 304 306 307 309 311 314 315 317 318 320 321 322 322 323 323 323 321 320 320 322 323 324 324 323 323 322 322 322 321 320 320 321 320 320 320 320
22 19 16 12 7 3 359 355 351 348 346 343 341 338 336 333 330 327 326 326 327 328 328 327 327 328 331 336 341 344 344 343 341 341 340 340 337 333 329 326 324 322 321 318 314 308 302 298 295 294 296 299 302 305 308 311 312 314 317 319 320 321 321 322 322 322 322 321 321 322 322 322 322 322 322 321 320 319 317 316 315 316 316 315 314 314
27 22 16 10 5 360 355 350 346 343 341 340 340 340 340 339 337 334 331 331 332 333 333 333 333 333 337 344 350 354 354 354 352 350 348 345 342 338 333 329 326 324 322 318 314 308 303 297 295 294 294 295 298 301 303 305 308 311 314 314 313 314 316 318 320 322 323 322 322 321 321 321 321 321 320 319 317 316 314 312 311 311 312 311 310 309
27 19 10 3 358 353 349 344 341 339 339 339 341 344 346 346 344 342 340 340 340 341 342 343 342 341 342 347 353 358 360 359 358 355 351 348 344 340 337 333 330 328 324 319 314 309 304 300 296 294 294 296 298 300 301 302 304 307 308 308 309 312 315 317 320 322 323 321 321 321 320 320 319 319 318 316 315 314 314 313 311 310 309 309 308 307
22 12 3 356 351 346 342 339 339 339 339 341 343 346 348 349 348 347 346 345 344 344 345 345 344 343 341 341 345 351 356 358 357 354 350 347 344 341 338 336 334 331 327 321 315 310 308 304 299 295 294 296 296 296 297 299 302 304 305 306 309 313 314 316 319 321 321 320 320 319 319 318 317 316 315 314 313 313 313 313 312 311 310 308 307 306
12 3 355 349 344 341 339 340 341 341 341 343 346 349 349 352 353 352 350 348 346 346 347 346 345 343 340 338 338 341 345 350 352 352 349 346 344 341 339 337 335 333 329 321 314 310 309 306 302 297 297 297 295 293 293 295 298 301 304 306 307 306 305 308 313 316 318 318 318 317 317 317 316 315 314 313 312 312 312 312 311 311 311 309 308 306
2 354 349 346 344 343 344 343 342 341 342 345 350 354 354 356 357 356 354 350 348 348 348 347 345 342 340 337 335 334 336 339 343 345 345 346 345 343 341 338 336 333 329 322 315 309 305 301 300 300 300 298 293 290 289 291 295 299 303 306 307 305 303 306 310 313 315 315 315 315 316 317 317 315 313 312 312 312 311 311 310 310 310 310 308 306
355 351 349 347 346 346 346 343 342 341 343 348 355 359 0 1 -0 359 356 353 350 348 348 347 345 341 336 333 332 332 332 333 335 337 340 342 343 344 342 340 336 332 328 322 317 312 305 299 297 298 299 297 293 289 286 288 293 297 301 306 308 309 308 309 310 311 312 312 313 314 315 317 316 314 311 311 311 311 311 310 309 309 309 308 307 305
354 352 351 349 348 346 344 342 342 343 347 352 358 3 4 4 2 359 357 355 352 348 345 344 343 338 333 330 331 331 331 331 332 334 336 338 340 341 341 340 337 334 329 324 320 315 311 305 301 297 293 292 291 291 291 293 294 297 301 307 310 311 311 310 310 311 311 311 311 313 315 316 316 314 311 310 310 310 310 311 310 310 309 307 306 305
354 353 352 350 348 347 346 344 345 348 352 354 358 2 6 6 2 358 356 355 352 348 344 342 339 335 332 331 332 332 331 331 331 332 334 337 338 339 340 339 338 336 334 330 325 320 316 313 309 302 293 287 284 286 292 297 300 303 307 310 311 311 309 308 309 311 311 310 310 311 313 313 311 310 309 309 309 309 310 310 310 310 309 308 307 305
353 354 353 351 350 350 349 349 350 353 355 354 354 357 1 5 4 360 357 354 351 348 344 341 337 334 331 331 333 334 333 332 332 333 335 337 339 339 339 339 339 338 337 336 334 332 327 323 319 313 303 291 285 285 292 299 305 308 310 310 309 308 307 308 309 311 311 310 310 310 310 308 307 305 305 305 306 306 308 309 309 310 309 309 307 306
353 353 352 352 352 353 352 353 356 357 356 353 351 351 355 360 2 1 358 355 351 348 343 340 337 334 331 331 333 335 335 335 334 335 336 338 339 339 339 340 341 341 340 341 341 342 341 338 335 332 325 309 297 296 300 305 309 310 310 309 309 308 308 308 309 310 311 310 310 309 308 306 305 305 303 302 302 304 306 308 308 309 309 309 308 306
354 353 352 353 354 355 357 359 1 0 356 352 350 350 352 355 357 357 356 354 351 347 342 339 337 334 332 331 332 333 334 334 334 334 334 337 337 337 337 339 340 342 342 343 343 344 344 343 341 339 336 329 318 310 309 310 311 311 310 310 310 311 310 309 309 310 310 310 309 308 307 306 305 304 302 301 302 304 305 306 307 308 309 310 309 307